STARLINK-11293, 61249

Orbit data source: Space-Track

STARLINK-11293, 61249 is a payload satellite owned by SpaceX/Seattle (US) in LEO that was launched on Wed, 25 Sep 2024 UTC via an FALCON 9 launch vehicle from the Air Force Western Test Range (AFWTR). Payload-class satellites include a variety of spacecraft equipped with specific instruments for various scientific and technological missions. These include communications satellites like Starlink; space stations such as the ISS; scientific satellites like the Hubble; Earth observation satellites from companies like Planet Labs, Umbra, and HawkEye 360; GPS; miniature CubeSats for education and research; and military/defense satellites.

Loading next visibility...
Identifier
61249, 2024-175G
Orbit
LEO
Last TLE update
11 hours ago
Origin
Manufacturer
SpaceX/Seattle
Mission
Operational Commercial Communications
Bus & Motor
STARLINK V2M, Unknown motor
Mass
730 kg wet, ~700 kg dry
Launch date (UTC)
2024-09-25 (9 months ago)
Launch vehicle
FALCON 9
Launch site
Air Force Western Test Range (AFWTR)
Object type
Payload
Rocket body
Debris
Shape & HBR
Box + 2 Pan, 29 m
Radar Cross Section
36.964 m², Large (>1 m²)

Expand to show TLE details & history

TLE from 11 hours ago
0 STARLINK-11293
1 61249U 24175G   25181.83207045 -.00001169  00000-0 -47939-5 0  9993
2 61249  53.1596 217.5179 0001054 100.1951 259.9186 15.69711502 43815
Epoch: 2025-06-30T19:58Z
TLE epoch observation values (Epoch: 2025-06-30T19:58:10.886Z)
Latitude
-0.00003°
Longitude
-1.1637°
Altitude
360.762 km
Speed
7.694 km/s
True Right ascension
14h 30m 04s
True Declination
0° 00' 00"
Sunlit
Object was in full shadow at epoch
Visualization orbit readout
Latitude
-15.28784°
Longitude
-15.09444°
Altitude
364.213 km
Speed
7.691 km/s
Apparent Right ascension
10h 39m 25s
Apparent Declination
-41° 18' 16"
Sunlit
Object is in daylight
Visualization observer readout
Local Sidereal Time
18:12:54
Azimuth
245.446° WSW
Elevation
-40.699°
Doppler factor
1
Orbital elements
Apogee altitude
360.693 km
Perigee altitude
359.273 km
Semi-major axis
6,738.12 km
Eccentricity
0.00011
Inclination
53.1596°
RAAN
217.5179°
Arg. of periapsis
100.1951°
True anomaly
Unknown
Mean anomaly
259.9186°
Eccentric anomaly
Unknown
Mean motion
3.92405 °/min
Orbital period
91.74 mins
BSTAR
-0.0000047939
Loading maneuver chart data...
Loading SW <> Apogee altitude chart data...
Loading historical data...
Loading historical data...
Loading historical data...
Loading historical data...
Loading historical data...
Loading historical data...
Loading historical data...

STARLINK-11293 Visibility forecast

Observer location: undefined°, undefined°

Span
Click to sort rows by Start time (UTC) header in descending order
Start Az.
Max El. time (UTC)
Max El. Az.
Max El.
End time (UTC)
End Az.
4 mins2025-07-01 11:45:05.697Z326.135° NNW2025-07-01 11:47:05.697Z79.539° E36.804°2025-07-01 11:49:05.697Z116.154° SE
4 mins2025-07-02 04:14:05.697Z180.199° SSW2025-07-02 04:16:05.697Z113.848° SE23.96°2025-07-02 04:18:05.697Z72.38° E
|